User: anonymous   Login
Location: Albuquerque Trailhead
(34.7934°N, 106.3736°W)
Time: 21:28:42
(UTC+00:00)
Language:

Cosmos 540 Rocket - Orbit

View from above orbital plane
View from above orbital plane
View from above satellite
View from above satellite

Ground track
Ground track

The orbit data is extracted from the following two-line orbital elements,

1 06324U 72104B   21269.20401964 -.00000043  00000-0 -49552-5 0  9994
2 06324  74.0754  90.8507 0009261 193.9756 166.1147 14.43549182560683
Epoch (UTC): 26 September 2021 04:53:47
Eccentricity: 0.0009261
inclination: 74.0754°
perigee height: 740 km
apogee height: 753 km
right ascension of ascending node: 90.8507°
argument of perigee: 193.9756°
revolutions per day: 14.43549182
mean anomaly at epoch: 166.1147°
orbit number at epoch: 56068

The dashed part of the orbit path shows where the satellite is in the earth's shadow,  

DLR